Weather in Verkhnyaya Pesha

Russia / Nenets Autonomous Okrug     66°36′34″N   47°57′11″E
temp.,
°C
wind,
m/s
gust,
m/s
humid.,
%
clouds,
%
prec.,
mm/h
press.,
hPa
HPBL,
m
1 march, mon
mon100:00−5ssw71295100 0.6 1005471
03:00−5sw81495100 1.8 1002634
06:00−4ssw81495100 1.2 997557
09:00−2sw101695100 3.9 992746
12:00+1w81399100 3.3 989540
15:00+1w71299100 3.3 989486
18:000w61097100 0.1 988456
21:00−2w489798 0.2 988238
2 march, tue
tue200:00−5w479796 0.1 986128
03:00−4wsw489798 0.8 987225
06:00−6w589598 0.3 986164
09:00−7w599599 0.4 987273
12:00−3nw4895100 1.0 989483
15:00−4wnw5987100 1.1 990266
18:00−8w598628 0.0 990144
21:00−8wsw6139426 0.0 990225
3 march, wed
wed300:00−5wsw7139395 0.6 988439
03:00−7w7119497 1.5 988564
06:00−12wsw4995100 0.5 988299
09:00−12e1195100 0.8 99060
12:00−10n459194 0.1 993324
15:00−13n579397 0.2 995321
18:00−17n479699 0.1 996158
21:00−19n469799 0.3 996142
4 march, thu
thu400:00−20n359898 0.1 995114
03:00−20nnw469899 0.2 995154
06:00−21nnw339996 0.1 99460
09:00−18nnw349797 0.1 994152
12:00−15nne359198 0.1 995366
15:00−16ne469199 0.2 995389
18:00−18ne489599 0.1 996240
21:00−19ne4896100 0.3 997277
5 march, fri
fri500:00−21ne4894100 0.1 999248
03:00−24nne3495100 0.1 100075
06:00−26n459699 0.0 100268
09:00−23n459699 0.1 1003245
12:00−23n459494 0.0 1004294
15:00−23nnw359697 0.1 1006255
18:00−26nnw239995 0.0 100721
21:00−25nw239995 0.1 100826